Date String (YYYY-MM-DD hh:mm:ss) UTC,Instrument flags,absolute air pressure of the measurement (hPa),sample flow rate (lpm),inlet stack bypass flow (lpm),air temperature of the measurement (°C),ambient temperature measured by the external sensor (°C),aerosol sample conditioner tube jacket temperature (°C),OPC LED temperature (°C),internal box temperature (°C),relative humidity of the measurement (%),span deviation,mass concentration of particles derived from Lorenz-Mie calculation of OPC scattering (μg/m³),mass concentration of particles derived from Lorenz-Mie calculation of OPC scattering (μg/m³),mass concentration of particles derived from Lorenz-Mie calculation of OPC scattering (μg/m³)
DateTimeUTC,F1_M11,P_M11,Q1_M11,Q2_M11,T1_M11,T2_M11,T3_M11,T4_M11,T5_M11,U1_M11,ZSPAN_M11,X2_M11,X0_M11,X1_M11
2024-05-08 05:00:00,SystemResetWarning,0819.2,5.00,000.00,022.0,021.2,000.0,030.5,023.7,012.4,0000.0,0001.70,0004.57,0000.77
2024-05-08 05:01:00,SystemResetWarning,0819.2,5.00,000.00,022.0,021.2,000.0,030.5,023.7,012.4,0000.0,0001.73,0004.68,0000.78
2024-05-08 05:02:00,SystemResetWarning,0819.2,5.00,000.00,022.0,021.1,000.0,030.5,023.7,012.3,0000.0,0001.73,0004.73,0000.78
2024-05-08 05:03:00,SystemResetWarning,0819.2,5.00,000.00,021.9,021.1,000.0,030.5,023.7,012.4,0000.0,0001.71,0005.62,0000.78
2024-05-08 05:04:00,SystemResetWarning,0819.1,5.00,000.00,021.9,021.1,000.0,030.5,023.7,012.5,0000.0,0001.70,0006.69,0000.76
2024-05-08 05:05:00,SystemResetWarning,0819.0,5.00,000.00,021.9,021.1,000.0,030.5,023.7,012.6,0000.0,0001.64,0006.23,0000.75
2024-05-08 05:06:00,SystemResetWarning,0819.0,5.00,000.00,021.9,021.1,000.0,030.5,023.7,012.6,0000.0,0001.65,0006.21,0000.75
2024-05-08 05:07:00,SystemResetWarning,0819.0,5.00,000.00,021.9,021.1,000.0,030.5,023.7,012.7,0000.0,0001.68,0006.34,0000.75
2024-05-08 05:08:00,SystemResetWarning,0819.0,5.00,000.00,021.9,021.1,000.0,030.5,023.7,012.7,0000.0,0001.73,0006.45,0000.75
2024-05-08 05:09:00,SystemResetWarning,0819.1,5.00,000.00,021.9,021.1,000.0,030.4,023.6,012.7,0000.0,0001.80,0006.51,0000.75
2024-05-08 05:10:00,SystemResetWarning,0819.1,5.00,000.00,021.9,021.1,000.0,030.4,023.6,012.6,0000.0,0001.79,0006.54,0000.75
2024-05-08 05:11:00,SystemResetWarning,0819.0,5.00,000.00,021.9,021.1,000.0,030.4,023.6,012.2,0000.0,0001.74,0006.30,0000.75
2024-05-08 05:12:00,SystemResetWarning,0818.9,5.00,000.00,021.9,021.1,000.0,030.4,023.6,012.2,0000.0,0001.68,0005.94,0000.73
2024-05-08 05:13:00,SystemResetWarning,0819.0,5.00,000.00,021.9,021.1,000.0,030.4,023.6,012.2,0000.0,0001.65,0005.76,0000.73
2024-05-08 05:14:00,SystemResetWarning,0818.9,5.00,000.00,021.9,021.1,000.0,030.4,023.7,012.4,0000.0,0001.68,0005.62,0000.74
2024-05-08 05:15:00,SystemResetWarning,0818.9,5.00,000.00,021.9,021.1,000.0,030.4,023.6,012.0,0000.0,0001.65,0004.67,0000.73
2024-05-08 05:16:00,SystemResetWarning,0819.0,5.00,000.00,021.8,021.1,000.0,030.4,023.6,011.9,0000.0,0001.59,0004.09,0000.73
2024-05-08 05:17:00,SystemResetWarning,0819.0,5.00,000.00,021.8,021.1,000.0,030.4,023.6,011.8,0000.0,0001.55,0004.03,0000.73
2024-05-08 05:18:00,SystemResetWarning,0819.1,5.01,000.00,021.8,021.1,000.0,030.4,023.6,011.6,0000.0,0001.53,0004.46,0000.73
2024-05-08 05:19:00,SystemResetWarning,0818.9,5.01,000.00,021.8,021.1,000.0,030.4,023.6,011.5,0000.0,0001.54,0004.68,0000.74
2024-05-08 05:20:00,SystemResetWarning,0819.4,5.00,000.00,021.8,021.1,000.0,030.4,023.6,011.5,0000.0,0001.50,0004.66,0000.73
2024-05-08 05:21:00,SystemResetWarning,0818.9,5.00,000.00,021.8,021.1,000.0,030.4,023.6,011.4,0000.0,0001.54,0004.75,0000.73
2024-05-08 05:22:00,SystemResetWarning,0818.8,4.99,000.00,021.8,021.1,000.0,030.4,023.6,010.7,0000.0,0001.52,0004.76,0000.72
2024-05-08 05:23:00,SystemResetWarning,0818.9,4.99,000.00,021.8,021.0,000.0,030.3,023.6,010.7,0000.0,0001.48,0004.99,0000.72
2024-05-08 05:24:00,SystemResetWarning,0819.2,4.99,000.00,021.8,021.1,000.0,030.3,023.6,011.3,0000.0,0001.46,0005.00,0000.71
2024-05-08 05:25:00,SystemResetWarning,0819.0,5.00,000.00,021.8,021.1,000.0,030.3,023.6,011.7,0000.0,0001.45,0004.67,0000.71
2024-05-08 05:26:00,SystemResetWarning,0819.3,5.00,000.00,021.8,021.1,000.0,030.3,023.6,011.4,0000.0,0001.56,0004.54,0000.71
2024-05-08 05:27:00,SystemResetWarning,0819.2,5.01,000.00,021.8,021.1,000.0,030.3,023.6,010.9,0000.0,0001.64,0004.70,0000.72
2024-05-08 05:28:00,SystemResetWarning,0819.2,5.01,000.00,021.8,021.1,000.0,030.3,023.6,010.5,0000.0,0001.64,0004.78,0000.72
2024-05-08 05:29:00,SystemResetWarning,0819.0,5.00,000.00,021.8,021.1,000.0,030.3,023.6,010.1,0000.0,0001.60,0004.51,0000.72
2024-05-08 05:30:00,SystemResetWarning,0819.0,4.99,000.00,021.8,021.1,000.0,030.3,023.5,010.4,0000.0,0001.61,0004.20,0000.72
2024-05-08 05:31:00,SystemResetWarning,0819.0,5.00,000.00,021.8,021.1,000.0,030.3,023.6,010.3,0000.0,0001.59,0004.11,0000.72
2024-05-08 05:32:00,SystemResetWarning,0819.0,4.99,000.00,021.8,021.1,000.0,030.3,023.6,010.4,0000.0,0001.54,0004.52,0000.71
2024-05-08 05:33:00,SystemResetWarning,0819.1,5.01,000.00,021.8,021.1,000.0,030.3,023.6,010.7,0000.0,0001.53,0005.07,0000.71
2024-05-08 05:34:00,SystemResetWarning,0819.0,5.01,000.00,021.8,021.1,000.0,030.3,023.6,012.0,0000.0,0001.52,0004.78,0000.70
2024-05-08 05:35:00,SystemResetWarning,0819.0,5.00,000.00,021.8,021.1,000.0,030.3,023.6,010.7,0000.0,0001.55,0004.87,0000.71
2024-05-08 05:36:00,SystemResetWarning,0819.0,4.99,000.00,021.8,021.0,000.0,030.3,023.5,009.9,0000.0,0001.52,0004.75,0000.71
2024-05-08 05:37:00,SystemResetWarning,0819.0,5.00,000.00,021.8,021.0,000.0,030.3,023.5,009.8,0000.0,0001.37,0004.35,0000.70
2024-05-08 05:38:00,SystemResetWarning,0819.1,5.00,000.00,021.8,021.1,000.0,030.2,023.5,009.9,0000.0,0001.28,0004.21,0000.69
2024-05-08 05:39:00,SystemResetWarning,0819.0,5.00,000.00,021.8,021.0,000.0,030.2,023.5,009.9,0000.0,0001.25,0004.26,0000.68
2024-05-08 05:40:00,SystemResetWarning,0819.0,4.99,000.00,021.8,021.0,000.0,030.2,023.5,010.0,0000.0,0001.29,0004.28,0000.67
2024-05-08 05:41:00,SystemResetWarning,0819.0,4.99,000.00,021.8,021.0,000.0,030.2,023.5,009.6,0000.0,0001.22,0004.02,0000.66
2024-05-08 05:42:00,SystemResetWarning,0819.0,5.01,000.00,021.8,021.0,000.0,030.2,023.5,009.4,0000.0,0001.20,0003.91,0000.66
2024-05-08 05:43:00,SystemResetWarning,0819.0,5.00,000.00,021.8,020.9,000.0,030.2,023.5,009.3,0000.0,0001.17,0003.56,0000.64
2024-05-08 05:44:00,SystemResetWarning,0819.0,5.01,000.00,021.7,020.9,000.0,030.2,023.4,009.4,0000.0,0001.17,0002.82,0000.64
2024-05-08 05:45:00,SystemResetWarning,0819.0,5.01,000.00,021.7,020.9,000.0,030.2,023.4,009.5,0000.0,0001.21,0003.43,0000.64
2024-05-08 05:46:00,SystemResetWarning,0819.1,5.00,000.00,021.7,020.9,000.0,030.1,023.4,009.4,0000.0,0001.17,0003.32,0000.62
2024-05-08 05:47:00,SystemResetWarning,0819.1,4.99,000.00,021.7,020.9,000.0,030.1,023.4,009.3,0000.0,0001.17,0003.65,0000.62
2024-05-08 05:48:00,SystemResetWarning,0819.1,5.00,000.00,021.7,020.9,000.0,030.1,023.4,009.3,0000.0,0001.19,0003.85,0000.62
2024-05-08 05:49:00,SystemResetWarning,0819.0,5.00,000.00,021.7,020.9,000.0,030.1,023.4,009.2,0000.0,0001.23,0003.85,0000.62
2024-05-08 05:50:00,SystemResetWarning,0818.9,4.99,000.00,021.7,020.9,000.0,030.1,023.4,009.5,0000.0,0001.24,0003.71,0000.61
2024-05-08 05:51:00,SystemResetWarning,0818.9,4.99,000.00,021.7,020.9,000.0,030.0,023.3,009.5,0000.0,0001.22,0003.67,0000.61
2024-05-08 05:52:00,SystemResetWarning,0818.9,4.99,000.00,021.6,020.9,000.0,030.0,023.3,009.3,0000.0,0001.23,0003.88,0000.61
2024-05-08 05:53:00,SystemResetWarning,0818.8,5.01,000.00,021.6,020.9,000.0,030.0,023.3,009.2,0000.0,0001.23,0004.87,0000.61
2024-05-08 05:54:00,SystemResetWarning,0818.8,5.01,000.00,021.6,020.9,000.0,030.0,023.3,009.2,0000.0,0001.19,0005.43,0000.61
2024-05-08 05:55:00,SystemResetWarning,0818.7,5.01,000.00,021.6,020.8,000.0,030.0,023.3,009.2,0000.0,0001.13,0005.30,0000.60
2024-05-08 05:56:00,SystemResetWarning,0818.7,5.00,000.00,021.6,020.8,000.0,029.9,023.3,010.5,0000.0,0001.08,0004.99,0000.59
2024-05-08 05:57:00,SystemResetWarning,0818.7,5.00,000.00,021.6,020.8,000.0,029.9,023.3,011.5,0000.0,0001.07,0005.26,0000.60
2024-05-08 05:58:00,SystemResetWarning,0818.7,5.00,000.00,021.6,020.8,000.0,029.9,023.3,011.7,0000.0,0001.13,0005.32,0000.60
2024-05-08 05:59:00,SystemResetWarning,0818.6,4.99,000.00,021.6,020.8,000.0,029.9,023.2,011.7,0000.0,0001.19,0005.57,0000.62
